Tracking 30990 objects as of 8-Jul-2025
HD Live streaming from Space Station
objects crossing your sky now

GORIZONT 6

Track GORIZONT 6 now!
GORIZONT 6 is classified as:


NORAD ID: 13624
Int'l Code: 1982-103A
Perigee: 35,817.4 km
Apogee: 35,829.9 km
Inclination: 8.1 °
Period: 1,437.6 minutes
Semi major axis: 42194 km
RCS: 3.1622 m2 (large)
Launch date: October 20, 1982
Source: Commonwealth of Independent States (former USSR) (CIS)
Launch site: TYURATAM MISSILE AND SPACE COMPLEX (TTMTR)
Your satellite tracking list
Your tracking list is empty




NASA's NSSDC Master Catalog

Two Line Element Set (TLE):
1 13624U 82103A   25188.46759611  .00000012  00000-0  00000-0 0  9996
2 13624   8.0892 304.3775 0001477 320.7038  73.4009  1.00165179117491
Source of the keplerian elements: AFSPC